| time (UTC) | temp F | wind direction | speed knots | gust knots | rain 1hr in | rain 24hr in | rain mn in | humidity % | barometer mb |
| 20260508213012 | 59 | 210 | 8.7 | 13.9 | 0.00 | 0.00 | 0.00 | 24 | 1008.0 |
| 20260508212513 | 59 | 196 | 1.7 | 13.0 | 0.00 | 0.00 | 0.00 | 24 | 1008.0 |
| 20260508211513 | 60 | 200 | 5.2 | 13.9 | 0.00 | 0.00 | 0.00 | 23 | 1007.8 |
| 20260508211012 | 60 | 222 | 5.2 | 12.2 | 0.00 | 0.00 | 0.00 | 22 | 1007.8 |
| 20260508210512 | 60 | 252 | 3.5 | 11.3 | 0.00 | 0.00 | 0.00 | 22 | 1007.9 |
| 20260508210015 | 60 | 226 | 3.5 | 13.9 | 0.00 | 0.00 | 0.00 | 21 | 1007.6 |
| 20260508205513 | 61 | 191 | 3.5 | 13.9 | 0.00 | 0.00 | 0.00 | 21 | 1007.5 |
| 20260508204513 | 61 | 213 | 5.2 | 14.8 | 0.00 | 0.00 | 0.00 | 21 | 1007.7 |
| 20260508204013 | 62 | 47 | 3.5 | 14.8 | 0.00 | 0.00 | 0.00 | 21 | 1007.5 |
| 20260508203514 | 62 | 90 | 5.2 | 14.8 | 0.00 | 0.00 | 0.00 | 21 | 1007.5 |
| 20260508202013 | 62 | 170 | 4.3 | 20.9 | 0.00 | 0.00 | 0.00 | 21 | 1007.0 |
| 20260508201513 | 62 | 188 | 5.2 | 13.9 | 0.00 | 0.00 | 0.00 | 23 | 1007.2 |
| 20260508201012 | 62 | 178 | 6.1 | 13.9 | 0.00 | 0.00 | 0.00 | 22 | 1007.0 |
| 20260508200513 | 62 | 176 | 6.1 | 17.4 | 0.00 | 0.00 | 0.00 | 22 | 1006.9 |
| 20260508200013 | 63 | 192 | 7.0 | 18.2 | 0.00 | 0.00 | 0.00 | 23 | 1007.1 |
| 20260508195512 | 63 | 219 | 7.0 | 18.2 | 0.00 | 0.00 | 0.00 | 22 | 1007.1 |
| 20260508195016 | 63 | 226 | 9.6 | 17.4 | 0.00 | 0.00 | 0.00 | 23 | 1007.3 |
| 20260508194513 | 63 | 215 | 7.0 | 13.0 | 0.00 | 0.00 | 0.00 | 24 | 1007.2 |
| 20260508194013 | 63 | 164 | 3.5 | 20.0 | 0.00 | 0.00 | 0.00 | 25 | 1007.2 |
| 20260508193512 | 63 | 174 | 3.5 | 20.9 | 0.00 | 0.00 | 0.00 | 25 | 1007.3 |
| 20260508192513 | 62 | 100 | 6.1 | 15.6 | 0.00 | 0.00 | 0.00 | 25 | 1007.0 |
| 20260508192014 | 63 | 205 | 3.5 | 15.6 | 0.00 | 0.00 | 0.00 | 25 | 1007.3 |
| 20260508191513 | 62 | 217 | 3.5 | 15.6 | 0.00 | 0.00 | 0.00 | 26 | 1007.3 |
| 20260508191013 | 62 | 113 | 3.5 | 13.9 | 0.00 | 0.00 | 0.00 | 25 | 1007.4 |
| 20260508190513 | 62 | 118 | 3.5 | 14.8 | 0.00 | 0.00 | 0.00 | 27 | 1007.5 |
| 20260508190012 | 62 | 171 | 6.1 | 14.8 | 0.00 | 0.00 | 0.00 | 27 | 1007.6 |
| 20260508185513 | 62 | 156 | 10.4 | 14.8 | 0.00 | 0.00 | 0.00 | 27 | 1007.7 |
| 20260508185013 | 63 | 186 | 6.1 | 12.2 | 0.00 | 0.00 | 0.00 | 27 | 1007.6 |
| 20260508184513 | 62 | 233 | 3.5 | 14.8 | 0.00 | 0.00 | 0.00 | 28 | 1007.5 |
| 20260508184013 | 62 | 197 | 6.1 | 14.8 | 0.00 | 0.00 | 0.00 | 29 | 1007.7 |
| 20260508183512 | 62 | 85 | 6.1 | 13.9 | 0.00 | 0.00 | 0.00 | 30 | 1007.6 |
| 20260508182514 | 62 | 99 | 3.5 | 13.9 | 0.00 | 0.00 | 0.00 | 30 | 1008.0 |
| 20260508181513 | 62 | 268 | 2.6 | 13.9 | 0.00 | 0.00 | 0.00 | 30 | 1008.0 |
| 20260508181012 | 61 | 227 | 3.5 | 13.9 | 0.00 | 0.00 | 0.00 | 30 | 1008.3 |
| 20260508180512 | 62 | 257 | 5.2 | 13.0 | 0.00 | 0.00 | 0.00 | 30 | 1008.0 |
| 20260508180013 | 62 | 256 | 3.5 | 15.6 | 0.00 | 0.00 | 0.00 | 30 | 1008.3 |
| 20260508175512 | 61 | 245 | 3.5 | 15.6 | 0.00 | 0.00 | 0.00 | 31 | 1008.4 |
| 20260508175013 | 62 | 263 | 4.3 | 15.6 | 0.00 | 0.00 | 0.00 | 30 | 1008.1 |
| 20260508174512 | 61 | 254 | 1.7 | 18.2 | 0.00 | 0.00 | 0.00 | 31 | 1008.3 |
| 20260508174013 | 61 | 167 | 4.3 | 18.2 | 0.00 | 0.00 | 0.00 | 31 | 1008.2 |
| 20260508173513 | 61 | 345 | 3.5 | 12.2 | 0.00 | 0.00 | 0.00 | 31 | 1008.1 |
| 20260508173013 | 61 | 347 | 3.5 | 13.9 | 0.00 | 0.00 | 0.00 | 32 | 1008.2 |
| 20260508172513 | 60 | 350 | 2.6 | 13.9 | 0.00 | 0.00 | 0.00 | 33 | 1008.4 |
| 20260508171513 | 60 | 114 | 5.2 | 13.9 | 0.00 | 0.00 | 0.00 | 34 | 1008.3 |
| 20260508171012 | 61 | 60 | 3.5 | 9.6 | 0.00 | 0.00 | 0.00 | 34 | 1008.7 |
| 20260508170012 | 60 | 192 | 2.6 | 19.1 | 0.00 | 0.00 | 0.00 | 35 | 1008.6 |
| 20260508165513 | 58 | 213 | 9.6 | 19.1 | 0.00 | 0.00 | 0.00 | 37 | 1008.6 |
| 20260508165013 | 59 | 151 | 6.1 | 17.4 | 0.00 | 0.00 | 0.00 | 36 | 1008.9 |
| 20260508163512 | 59 | 198 | 3.5 | 13.9 | 0.00 | 0.01 | 0.00 | 37 | 1009.1 |
| 20260508163013 | 59 | 179 | 5.2 | 15.6 | 0.00 | 0.01 | 0.00 | 36 | 1009.0 |
| 20260508162012 | 59 | 96 | 2.6 | 9.6 | 0.00 | 0.02 | 0.00 | 38 | 1009.3 |
| 20260508161514 | 59 | 169 | 3.5 | 15.6 | 0.00 | 0.02 | 0.00 | 38 | 1009.5 |
| 20260508161012 | 57 | 193 | 2.6 | 15.6 | 0.00 | 0.02 | 0.00 | 39 | 1009.3 |
| 20260508160513 | 58 | 206 | 3.5 | 13.9 | 0.00 | 0.02 | 0.00 | 38 | 1009.7 |
| 20260508160012 | 58 | 205 | 5.2 | 13.0 | 0.00 | 0.02 | 0.00 | 38 | 1009.6 |
| 20260508155513 | 58 | 3 | 5.2 | 18.2 | 0.00 | 0.02 | 0.00 | 39 | 1010.0 |
| 20260508154512 | 59 | 297 | 2.6 | 15.6 | 0.00 | 0.05 | 0.00 | 39 | 1009.8 |
| 20260508154013 | 58 | 170 | 2.6 | 15.6 | 0.00 | 0.06 | 0.00 | 40 | 1010.2 |
| 20260508153513 | 57 | 151 | 5.2 | 13.9 | 0.00 | 0.06 | 0.00 | 39 | 1009.9 |
| 20260508151513 | 56 | 144 | 8.7 | 17.4 | 0.00 | 0.06 | 0.00 | 41 | 1010.4 |
| 20260508151012 | 57 | 276 | 2.6 | 12.2 | 0.00 | 0.06 | 0.00 | 40 | 1010.7 |
| 20260508150013 | 56 | 154 | 5.2 | 21.7 | 0.00 | 0.06 | 0.00 | 42 | 1010.8 |
| 20260508145512 | 57 | 175 | 3.5 | 12.2 | 0.00 | 0.06 | 0.00 | 41 | 1011.0 |
| 20260508145013 | 57 | 148 | 3.5 | 17.4 | 0.00 | 0.06 | 0.00 | 41 | 1010.8 |
| 20260508144512 | 56 | 176 | 4.3 | 17.4 | 0.00 | 0.06 | 0.00 | 43 | 1010.8 |
| 20260508144014 | 56 | 187 | 1.7 | 15.6 | 0.00 | 0.06 | 0.00 | 43 | 1010.7 |
| 20260508143512 | 55 | 169 | 2.6 | 17.4 | 0.00 | 0.06 | 0.00 | 43 | 1010.7 |
| 20260508143013 | 54 | 201 | 3.5 | 17.4 | 0.00 | 0.06 | 0.00 | 44 | 1010.7 |
| 20260508142512 | 54 | 225 | 7.0 | 15.6 | 0.00 | 0.06 | 0.00 | 44 | 1010.5 |
| 20260508142013 | 54 | 214 | 4.3 | 21.7 | 0.00 | 0.06 | 0.00 | 44 | 1010.4 |
| 20260508141512 | 54 | 217 | 7.0 | 21.7 | 0.00 | 0.06 | 0.00 | 45 | 1010.5 |
| 20260508141012 | 54 | 220 | 6.1 | 20.9 | 0.00 | 0.06 | 0.00 | 44 | 1010.4 |
| 20260508140513 | 54 | 196 | 7.0 | 18.2 | 0.00 | 0.06 | 0.00 | 44 | 1010.6 |
| 20260508140013 | 54 | 191 | 4.3 | 21.7 | 0.00 | 0.07 | 0.00 | 44 | 1011.0 |
| 20260508135512 | 53 | 191 | 9.6 | 21.7 | 0.00 | 0.07 | 0.00 | 45 | 1010.7 |
| 20260508135013 | 53 | 185 | 9.6 | 21.7 | 0.00 | 0.07 | 0.00 | 44 | 1010.6 |
| 20260508134512 | 53 | 184 | 3.5 | 21.7 | 0.00 | 0.07 | 0.00 | 45 | 1010.6 |
| 20260508134012 | 54 | 192 | 3.5 | 20.0 | 0.00 | 0.07 | 0.00 | 44 | 1010.6 |
| 20260508133512 | 53 | 200 | 7.0 | 20.0 | 0.00 | 0.07 | 0.00 | 46 | 1010.6 |
| 20260508133013 | 52 | 197 | 4.3 | 18.2 | 0.00 | 0.07 | 0.00 | 46 | 1010.8 |
| 20260508132513 | 52 | 193 | 9.6 | 18.2 | 0.00 | 0.07 | 0.00 | 47 | 1010.6 |
| 20260508131512 | 52 | 186 | 8.7 | 18.2 | 0.00 | 0.07 | 0.00 | 47 | 1010.4 |
| 20260508131012 | 51 | 184 | 10.4 | 18.2 | 0.00 | 0.07 | 0.00 | 48 | 1010.8 |
| 20260508130512 | 51 | 171 | 7.0 | 15.6 | 0.00 | 0.07 | 0.00 | 48 | 1010.7 |
| 20260508130012 | 51 | 146 | 5.2 | 13.0 | 0.00 | 0.07 | 0.00 | 49 | 1010.6 |
| 20260508125513 | 51 | 162 | 3.5 | 13.0 | 0.00 | 0.07 | 0.00 | 49 | 1010.6 |
| 20260508124512 | 51 | 251 | 4.3 | 15.6 | 0.00 | 0.07 | 0.00 | 49 | 1010.6 |
| 20260508124012 | 51 | 158 | 6.1 | 15.6 | 0.00 | 0.07 | 0.00 | 49 | 1010.7 |
| 20260508123512 | 50 | 182 | 5.2 | 15.6 | 0.00 | 0.07 | 0.00 | 50 | 1010.5 |
| 20260508123013 | 50 | 214 | 3.5 | 13.9 | 0.00 | 0.07 | 0.00 | 50 | 1010.2 |
| 20260508122512 | 50 | 84 | 4.3 | 11.3 | 0.00 | 0.07 | 0.00 | 51 | 1010.6 |
| 20260508122012 | 49 | 95 | 4.3 | 11.3 | 0.00 | 0.07 | 0.00 | 52 | 1010.3 |
| 20260508121514 | 49 | 168 | 5.2 | 11.3 | 0.00 | 0.07 | 0.00 | 54 | 1010.5 |
| 20260508121012 | 49 | 149 | 1.7 | 13.9 | 0.00 | 0.07 | 0.00 | 55 | 1010.5 |
| 20260508115513 | 47 | 191 | 6.1 | 14.8 | 0.00 | 0.07 | 0.00 | 58 | 1010.3 |
| 20260508115012 | 47 | 165 | 1.7 | 7.8 | 0.00 | 0.07 | 0.00 | 58 | 1010.3 |
| 20260508114513 | 47 | 138 | 2.6 | 9.6 | 0.00 | 0.07 | 0.00 | 58 | 1010.2 |
| 20260508114012 | 47 | 130 | 3.5 | 9.6 | 0.00 | 0.07 | 0.00 | 58 | 1010.3 |
| 20260508113512 | 47 | 148 | 3.5 | 9.6 | 0.00 | 0.07 | 0.00 | 58 | 1009.8 |
| 20260508112513 | 47 | 167 | 3.5 | 13.0 | 0.00 | 0.07 | 0.00 | 58 | 1009.8 |
| 20260508112012 | 47 | 163 | 3.5 | 13.0 | 0.00 | 0.07 | 0.00 | 58 | 1009.5 |
| 20260508111012 | 47 | 134 | 1.7 | 9.6 | 0.00 | 0.07 | 0.00 | 58 | 1009.7 |
| 20260508110512 | 47 | 120 | 1.7 | 9.6 | 0.00 | 0.07 | 0.00 | 58 | 1009.5 |
| 20260508110012 | 47 | 68 | 1.7 | 9.6 | 0.00 | 0.07 | 0.00 | 57 | 1009.4 |
| 20260508105512 | 47 | 115 | 2.6 | 7.8 | 0.00 | 0.07 | 0.00 | 57 | 1009.4 |
| 20260508105012 | 47 | 121 | 1.7 | 7.8 | 0.00 | 0.07 | 0.00 | 56 | 1009.2 |
| 20260508104512 | 47 | 132 | 1.7 | 7.8 | 0.00 | 0.07 | 0.00 | 55 | 1009.1 |
| 20260508104013 | 48 | 142 | 2.6 | 7.8 | 0.00 | 0.07 | 0.00 | 54 | 1008.9 |
| 20260508103512 | 48 | 163 | 1.7 | 9.6 | 0.00 | 0.07 | 0.00 | 53 | 1009.0 |
| 20260508103012 | 48 | 204 | 3.5 | 15.6 | 0.00 | 0.07 | 0.00 | 52 | 1008.6 |
| 20260508102512 | 48 | 182 | 6.1 | 15.6 | 0.00 | 0.07 | 0.00 | 51 | 1008.6 |
| 20260508102012 | 49 | 183 | 7.8 | 17.4 | 0.00 | 0.07 | 0.00 | 51 | 1008.5 |
| 20260508101011 | 49 | 190 | 7.0 | 18.2 | 0.00 | 0.07 | 0.00 | 50 | 1008.4 |
| 20260508100512 | 49 | 197 | 9.6 | 20.9 | 0.00 | 0.07 | 0.00 | 50 | 1008.1 |
| 20260508100012 | 49 | 204 | 8.7 | 20.9 | 0.00 | 0.07 | 0.00 | 49 | 1008.3 |
| 20260508095511 | 49 | 207 | 10.4 | 23.5 | 0.00 | 0.07 | 0.00 | 49 | 1008.0 |
| 20260508095012 | 49 | 197 | 11.3 | 23.5 | 0.00 | 0.07 | 0.00 | 50 | 1008.3 |
| 20260508094512 | 49 | 195 | 13.0 | 23.5 | 0.00 | 0.07 | 0.00 | 50 | 1008.1 |
| 20260508094011 | 49 | 200 | 6.1 | 19.1 | 0.00 | 0.07 | 0.00 | 52 | 1008.2 |
| 20260508093512 | 49 | 187 | 8.7 | 19.1 | 0.00 | 0.07 | 0.00 | 53 | 1008.0 |
| 20260508093012 | 48 | 161 | 7.8 | 20.9 | 0.00 | 0.07 | 0.00 | 53 | 1008.0 |
| 20260508092012 | 48 | 181 | 8.7 | 20.9 | 0.00 | 0.07 | 0.00 | 54 | 1008.0 |
| 20260508091512 | 48 | 185 | 7.8 | 23.5 | 0.00 | 0.07 | 0.00 | 56 | 1007.8 |
| 20260508091012 | 48 | 168 | 5.2 | 23.5 | 0.00 | 0.07 | 0.00 | 57 | 1007.7 |
| 20260508090012 | 48 | 210 | 7.0 | 19.1 | 0.00 | 0.07 | 0.00 | 58 | 1007.5 |
| 20260508084512 | 48 | 183 | 7.8 | 17.4 | 0.00 | 0.07 | 0.00 | 60 | 1007.2 |
| 20260508084013 | 47 | 185 | 5.2 | 17.4 | 0.00 | 0.07 | 0.00 | 60 | 1007.1 |
| 20260508083513 | 48 | 185 | 7.0 | 14.8 | 0.00 | 0.07 | 0.00 | 60 | 1007.0 |
| 20260508082512 | 48 | 188 | 5.2 | 12.2 | 0.00 | 0.07 | 0.00 | 60 | 1007.0 |
| 20260508081512 | 48 | 204 | 5.2 | 17.4 | 0.00 | 0.08 | 0.00 | 59 | 1007.0 |
| 20260508081013 | 48 | 208 | 8.7 | 17.4 | 0.00 | 0.08 | 0.00 | 59 | 1007.1 |
| 20260508080512 | 49 | 201 | 6.1 | 14.8 | 0.00 | 0.08 | 0.00 | 58 | 1007.1 |
| 20260508080012 | 49 | 191 | 8.7 | 15.6 | 0.00 | 0.08 | 0.00 | 58 | 1007.3 |
| 20260508075512 | 49 | 185 | 9.6 | 15.6 | 0.00 | 0.08 | 0.00 | 58 | 1006.9 |
| 20260508075012 | 49 | 189 | 6.1 | 15.6 | 0.00 | 0.08 | 0.00 | 58 | 1006.9 |
| 20260508074511 | 49 | 191 | 8.7 | 15.6 | 0.00 | 0.09 | 0.00 | 57 | 1007.1 |
| 20260508074012 | 49 | 186 | 6.1 | 19.1 | 0.00 | 0.13 | 0.00 | 57 | 1006.9 |
| 20260508073512 | 49 | 181 | 7.0 | 19.1 | 0.00 | 0.13 | 0.00 | 59 | 1006.9 |
| 20260508072512 | 50 | 188 | 10.4 | 17.4 | 0.00 | 0.13 | 0.00 | 58 | 1007.0 |
| 20260508072011 | 49 | 201 | 7.0 | 17.4 | 0.00 | 0.13 | 0.00 | 59 | 1006.9 |
| 20260508071511 | 50 | 199 | 5.2 | 15.6 | 0.00 | 0.13 | 0.00 | 59 | 1007.0 |
| 20260508071012 | 49 | 190 | 7.0 | 15.6 | 0.00 | 0.13 | 0.00 | 60 | 1006.9 |
| 20260508070512 | 49 | 190 | 9.6 | 15.6 | 0.00 | 0.13 | 0.00 | 60 | 1007.0 |
| 20260508070012 | 50 | 182 | 7.0 | 13.0 | 0.00 | 0.13 | 0.00 | 60 | 1007.0 |
| 20260508065512 | 50 | 194 | 5.2 | 13.0 | 0.00 | 0.13 | 0.00 | 60 | 1006.9 |
| 20260508065012 | 50 | 204 | 9.6 | 13.9 | 0.00 | 0.13 | 0.00 | 59 | 1006.9 |
| 20260508064511 | 50 | 198 | 7.0 | 14.8 | 0.00 | 0.13 | 0.00 | 59 | 1007.0 |
| 20260508064012 | 50 | 185 | 9.6 | 17.4 | 0.00 | 0.13 | 0.00 | 58 | 1007.0 |
| 20260508063512 | 50 | 183 | 6.1 | 19.1 | 0.00 | 0.13 | 0.00 | 58 | 1007.0 |
| 20260508063011 | 51 | 191 | 3.5 | 19.1 | 0.00 | 0.13 | 0.00 | 57 | 1006.9 |
| 20260508062513 | 50 | 208 | 7.0 | 15.6 | 0.00 | 0.13 | 0.00 | 57 | 1006.9 |
| 20260508062013 | 51 | 206 | 6.1 | 19.1 | 0.00 | 0.13 | 0.00 | 56 | 1006.6 |
| 20260508061512 | 51 | 202 | 9.6 | 19.1 | 0.00 | 0.13 | 0.00 | 56 | 1007.0 |
| 20260508061011 | 51 | 204 | 6.1 | 13.9 | 0.00 | 0.13 | 0.00 | 57 | 1007.2 |
| 20260508060512 | 51 | 204 | 6.1 | 13.0 | 0.00 | 0.13 | 0.00 | 56 | 1007.1 |
| 20260508055512 | 51 | 189 | 7.0 | 15.6 | 0.00 | 0.13 | 0.00 | 56 | 1007.5 |
| 20260508055012 | 51 | 182 | 9.6 | 15.6 | 0.00 | 0.13 | 0.00 | 56 | 1007.5 |
| 20260508054513 | 51 | 181 | 7.0 | 13.9 | 0.00 | 0.13 | 0.00 | 57 | 1007.3 |
| 20260508054012 | 51 | 188 | 4.3 | 15.6 | 0.00 | 0.13 | 0.00 | 57 | 1007.5 |
| 20260508053512 | 51 | 178 | 3.5 | 15.6 | 0.00 | 0.13 | 0.00 | 58 | 1007.4 |
| 20260508053012 | 51 | 186 | 3.5 | 11.3 | 0.00 | 0.13 | 0.00 | 59 | 1007.6 |
| 20260508052012 | 50 | 289 | 1.7 | 7.0 | 0.00 | 0.13 | 0.00 | 64 | 1007.6 |
| 20260508051511 | 49 | 247 | 0.9 | 3.5 | 0.00 | 0.13 | 0.00 | 65 | 1007.6 |
| 20260508051012 | 49 | 282 | 0.9 | 5.2 | 0.00 | 0.13 | 0.00 | 65 | 1007.7 |
| 20260508050511 | 49 | 297 | 1.7 | 5.2 | 0.00 | 0.13 | 0.00 | 65 | 1007.7 |
| 20260508050012 | 50 | 53 | 1.7 | 6.1 | 0.00 | 0.13 | 0.00 | 63 | 1007.7 |
| 20260508045512 | 51 | 38 | 1.7 | 7.0 | 0.00 | 0.13 | 0.00 | 62 | 1007.3 |
| 20260508044511 | 51 | 283 | 1.7 | 6.1 | 0.00 | 0.13 | 0.00 | 63 | 1007.5 |
| 20260508044012 | 51 | 279 | 3.5 | 6.1 | 0.00 | 0.13 | 0.00 | 63 | 1007.5 |
| 20260508043512 | 51 | 284 | 1.7 | 5.2 | 0.00 | 0.13 | 0.00 | 61 | 1007.3 |
| 20260508042012 | 53 | 179 | 1.7 | 7.0 | 0.00 | 0.13 | 0.00 | 58 | 1007.0 |
| 20260508041512 | 53 | 181 | 1.7 | 12.2 | 0.00 | 0.13 | 0.00 | 57 | 1006.9 |
| 20260508040512 | 55 | 185 | 6.1 | 19.1 | 0.00 | 0.13 | 0.00 | 55 | 1006.4 |
| 20260508040011 | 55 | 192 | 5.2 | 14.8 | 0.00 | 0.13 | 0.00 | 55 | 1006.1 |
| 20260508035512 | 55 | 197 | 3.5 | 14.8 | 0.00 | 0.13 | 0.00 | 55 | 1006.0 |
| 20260508035011 | 54 | 196 | 7.8 | 13.9 | 0.00 | 0.13 | 0.00 | 56 | 1005.6 |
| 20260508034512 | 53 | 182 | 3.5 | 13.9 | 0.00 | 0.13 | 0.00 | 57 | 1005.8 |
| 20260508034012 | 53 | 177 | 7.8 | 13.9 | 0.00 | 0.13 | 0.00 | 58 | 1006.0 |
| 20260508033512 | 53 | 197 | 6.1 | 13.0 | 0.00 | 0.13 | 0.00 | 59 | 1006.3 |
| 20260508032012 | 52 | 193 | 7.0 | 13.0 | 0.00 | 0.13 | 0.00 | 60 | 1006.5 |
| 20260508031511 | 52 | 194 | 6.1 | 13.0 | 0.00 | 0.13 | 0.00 | 60 | 1006.0 |
| 20260508031012 | 52 | 187 | 9.6 | 13.0 | 0.00 | 0.13 | 0.00 | 61 | 1006.3 |
| 20260508030511 | 52 | 174 | 5.2 | 13.0 | 0.00 | 0.13 | 0.00 | 61 | 1006.2 |
| 20260508030012 | 52 | 189 | 5.2 | 11.3 | 0.00 | 0.13 | 0.00 | 61 | 1006.4 |
| 20260508025513 | 53 | 194 | 3.5 | 11.3 | 0.00 | 0.13 | 0.00 | 61 | 1006.4 |
| 20260508025011 | 53 | 185 | 2.6 | 9.6 | 0.00 | 0.13 | 0.13 | 60 | 1006.6 |
| 20260508024513 | 53 | 190 | 3.5 | 11.3 | 0.00 | 0.13 | 0.13 | 60 | 1006.6 |
| 20260508024011 | 53 | 157 | 3.5 | 13.9 | 0.00 | 0.13 | 0.13 | 60 | 1006.7 |
| 20260508023512 | 54 | 144 | 3.5 | 13.9 | 0.00 | 0.13 | 0.13 | 59 | 1006.9 |
| 20260508023011 | 54 | 181 | 3.5 | 12.2 | 0.00 | 0.13 | 0.13 | 59 | 1006.8 |
| 20260508022512 | 54 | 193 | 3.5 | 11.3 | 0.00 | 0.13 | 0.13 | 58 | 1006.8 |
| 20260508021512 | 54 | 185 | 4.3 | 13.0 | 0.00 | 0.13 | 0.13 | 60 | 1006.7 |
| 20260508021012 | 54 | 194 | 3.5 | 13.0 | 0.00 | 0.13 | 0.13 | 60 | 1006.9 |
| 20260508020511 | 54 | 201 | 2.6 | 9.6 | 0.00 | 0.13 | 0.13 | 60 | 1006.8 |
| 20260508020011 | 54 | 94 | 3.5 | 11.3 | 0.00 | 0.13 | 0.13 | 60 | 1006.7 |
| 20260508015011 | 54 | 148 | 4.3 | 11.3 | 0.00 | 0.13 | 0.13 | 61 | 1006.5 |
| 20260508014512 | 54 | 183 | 3.5 | 11.3 | 0.00 | 0.13 | 0.13 | 62 | 1006.4 |
| 20260508014013 | 54 | 194 | 2.6 | 11.3 | 0.00 | 0.13 | 0.13 | 62 | 1006.5 |
| 20260508013511 | 54 | 187 | 3.5 | 11.3 | 0.00 | 0.13 | 0.13 | 62 | 1006.7 |
| 20260508013011 | 54 | 181 | 3.5 | 11.3 | 0.00 | 0.13 | 0.13 | 62 | 1006.4 |
| 20260508012512 | 54 | 183 | 4.3 | 9.6 | 0.00 | 0.13 | 0.13 | 63 | 1006.5 |
| 20260508012011 | 54 | 187 | 3.5 | 9.6 | 0.00 | 0.13 | 0.13 | 63 | 1006.4 |
| 20260508011512 | 54 | 187 | 4.3 | 9.6 | 0.00 | 0.13 | 0.13 | 64 | 1006.2 |
| 20260508011011 | 54 | 140 | 2.6 | 7.0 | 0.00 | 0.13 | 0.13 | 65 | 1006.3 |
| 20260508010511 | 54 | 98 | 2.6 | 7.0 | 0.00 | 0.13 | 0.13 | 66 | 1006.2 |
| 20260508010011 | 54 | 147 | 1.7 | 6.1 | 0.00 | 0.13 | 0.13 | 66 | 1006.4 |
| 20260508005511 | 54 | 121 | 1.7 | 5.2 | 0.00 | 0.13 | 0.13 | 66 | 1006.2 |
| 20260508005012 | 54 | 130 | 1.7 | 3.5 | 0.00 | 0.13 | 0.13 | 66 | 1006.5 |
| 20260508004511 | 54 | 134 | 1.7 | 6.1 | 0.00 | 0.13 | 0.13 | 66 | 1006.0 |
| 20260508004011 | 54 | 126 | 1.7 | 6.1 | 0.00 | 0.13 | 0.13 | 66 | 1006.0 |
| 20260508003513 | 55 | 113 | 2.6 | 11.3 | 0.00 | 0.13 | 0.13 | 65 | 1006.0 |
| 20260508003011 | 56 | 156 | 2.6 | 11.3 | 0.00 | 0.13 | 0.13 | 63 | 1005.9 |
| 20260508002512 | 56 | 206 | 3.5 | 11.3 | 0.00 | 0.13 | 0.13 | 64 | 1006.0 |
| 20260508000512 | 56 | 188 | 3.5 | 7.8 | 0.00 | 0.13 | 0.13 | 65 | 1005.8 |
| 20260508000011 | 56 | 199 | 3.5 | 7.8 | 0.00 | 0.13 | 0.13 | 65 | 1005.6 |
| 20260507235511 | 56 | 208 | 4.3 | 7.8 | 0.00 | 0.13 | 0.13 | 64 | 1005.8 |
| 20260507235011 | 57 | 195 | 2.6 | 9.6 | 0.00 | 0.13 | 0.13 | 64 | 1005.8 |
| 20260507234511 | 57 | 199 | 1.7 | 9.6 | 0.00 | 0.13 | 0.13 | 63 | 1005.9 |
| 20260507234011 | 57 | 201 | 5.2 | 9.6 | 0.00 | 0.13 | 0.13 | 62 | 1005.9 |
| 20260507233512 | 57 | 189 | 3.5 | 9.6 | 0.00 | 0.13 | 0.13 | 62 | 1006.0 |
| 20260507233012 | 58 | 181 | 3.5 | 9.6 | 0.00 | 0.13 | 0.13 | 61 | 1006.1 |
| 20260507232011 | 58 | 205 | 4.3 | 9.6 | 0.00 | 0.13 | 0.13 | 61 | 1005.9 |
| 20260507231511 | 58 | 197 | 3.5 | 7.8 | 0.00 | 0.13 | 0.13 | 61 | 1006.1 |
| 20260507231011 | 58 | 213 | 1.7 | 7.8 | 0.00 | 0.13 | 0.13 | 61 | 1006.3 |
| 20260507230511 | 58 | 209 | 3.5 | 7.8 | 0.00 | 0.13 | 0.13 | 60 | 1006.1 |
| 20260507225512 | 58 | 202 | 3.5 | 11.3 | 0.00 | 0.13 | 0.13 | 61 | 1006.0 |
| 20260507225011 | 58 | 196 | 3.5 | 11.3 | 0.00 | 0.13 | 0.13 | 60 | 1005.8 |
| 20260507224511 | 58 | 197 | 6.1 | 11.3 | 0.00 | 0.13 | 0.13 | 61 | 1005.6 |
| 20260507224011 | 59 | 195 | 3.5 | 9.6 | 0.00 | 0.13 | 0.13 | 61 | 1005.7 |
| 20260507223511 | 59 | 194 | 4.3 | 9.6 | 0.00 | 0.13 | 0.13 | 61 | 1005.6 |
| 20260507223011 | 59 | 159 | 3.5 | 7.8 | 0.00 | 0.13 | 0.13 | 62 | 1005.8 |
| 20260507222512 | 59 | 134 | 2.6 | 7.8 | 0.00 | 0.13 | 0.13 | 63 | 1005.7 |
| 20260507222011 | 59 | 132 | 1.7 | 6.1 | 0.00 | 0.13 | 0.13 | 63 | 1005.4 |
| 20260507221011 | 59 | 139 | 1.7 | 6.1 | 0.00 | 0.13 | 0.13 | 63 | 1005.2 |
| 20260507220511 | 59 | 144 | 0.0 | 6.1 | 0.00 | 0.13 | 0.13 | 63 | 1005.3 |
| 20260507220011 | 60 | 138 | 3.5 | 7.0 | 0.00 | 0.13 | 0.13 | 62 | 1005.4 |
| 20260507215012 | 59 | 187 | 2.6 | 7.8 | 0.00 | 0.13 | 0.13 | 64 | 1004.9 |
| 20260507214511 | 59 | 175 | 2.6 | 7.8 | 0.00 | 0.13 | 0.13 | 65 | 1004.7 |